Location: Cisewo
(53.3833°N, 14.9000°E)
Time: 12:58:37
(UTC+00:00)

Cosmos 2344 - Pass Details

Date: 18 April 2021
Orbit: 1240 x 3002 km, 63.3° (Epoch: 16 May)

Event Time Altitude Azimuth Distance (km) Brightness Sun altitude
Rises 18:26:22 0° 185° (S) 4,276 6.1 -3.5°
Reaches altitude 10° 18:29:27 10° 176° (S) 3,236 5.4 -4.0°
Maximum altitude 18:35:55 33° 115° (ESE) 1,967 4.1 -4.8°
Drops below altitude 10° 18:42:41 10° 55° (NE) 3,408 5.6 -5.7°
Sets 18:46:01 0° 46° (NE) 4,535 6.3 -6.2°
